Location: Villanova del Battista
(41.1167°N, 15.1500°E)
Time: 21:20:56
(UTC+00:00)

Daily predictions for brighter satellites

Satellite Brightness Start Highest point End
(mag) Time Altitude Azimuth Time Altitude Azimuth Time Altitude Azimuth
CZ-2C R/B 4.0 15:55:32 10° NE 15:58:56 17° E 16:02:18 10° SE
CZ-4C R/B 4.4 15:55:36 10° N 15:59:14 15° NNE 16:03:09 10° NE
USA 308 4.2 15:56:26 10° W 16:00:18 32° NNW 16:04:09 10° NE
Okean O Rocket 3.3 16:00:35 10° E 16:02:42 13° ENE 16:04:50 10° NNE
ISS -1.5 16:07:08 10° NW 16:09:09 15° N 16:11:10 10° NNE
Cosmos 1464 Rocket 4.1 16:03:48 10° S 16:10:09 78° E 16:16:32 10° N
NOAA 6 4.1 16:06:48 10° SSE 16:11:52 61° ENE 16:16:56 10° N
Cosmos 1271 Rocket 4.1 16:14:45 10° SSW 16:18:27 41° WNW 16:22:13 10° N
CZ-4B R/B 3.6 16:16:32 10° S 16:20:44 61° W 16:24:44 10° NNW
Cosmos 1408 Rocket 3.5 16:17:00 10° N 16:21:20 68° E 16:25:40 10° SSE
Cosmos 1782 4.2 16:21:52 10° SE 16:24:42 19° E 16:26:57 13° NE
Cosmos 1697 Rocket 3.6 16:21:02 10° N 16:25:40 25° NE 16:30:15 10° ESE
Cosmos 1743 Rocket 4.0 16:21:38 10° N 16:25:41 38° ENE 16:29:44 10° SSE
Cosmos 1763 Rocket 3.8 16:20:56 10° S 16:25:42 43° ESE 16:30:29 10° NNE
Cosmos 1980 Rocket 3.7 16:23:59 10° NNE 16:27:12 15° NE 16:28:49 14° ENE
USA 267 4.3 16:22:24 10° NE 16:28:15 36° NNW 16:34:05 10° W
CZ-2C R/B 3.9 16:23:58 10° S 16:28:55 53° W 16:33:41 10° NNW
Nadezhda 4 Rocket 4.0 16:22:55 10° N 16:29:14 72° E 16:35:33 10° SSE
Lacrosse 5 2.8 16:24:19 10° NW 16:29:16 52° SW 16:34:12 10° SSE
CZ-4B DEB 4.2 16:25:39 10° SSE 16:31:08 70° ENE 16:36:38 10° N
Cosmos 1656 3.7 16:26:44 10° NNW 16:32:09 54° ENE 16:37:37 10° SE
Cosmos 2082 Rocket 3.5 16:30:38 10° SE 16:34:33 19° E 16:36:39 16° ENE
Cosmos 1340 Rocket 2.8 16:34:17 10° N 16:38:20 63° E 16:42:20 10° SSE
Cosmos 1092 Rocket 4.2 16:33:20 10° N 16:39:31 51° ENE 16:45:38 10° SSE
COSMOS 2406 3.8 16:34:20 10° S 16:39:34 37° ESE 16:43:56 14° NE
AQUARIUS 4.2 16:35:35 10° S 16:40:04 83° WSW 16:44:35 10° NNW
USA 229 DEB 4.3 16:33:39 10° NNW 16:40:35 43° NE 16:47:56 10° ESE
USA 229 4.3 16:33:45 10° NNW 16:40:40 43° NE 16:48:00 10° ESE
Cosmos 990 Rocket 4.1 16:38:29 10° N 16:43:35 52° ENE 16:48:36 10° SE
Cosmos 1151 Rocket 4.5 16:41:36 10° SE 16:43:58 18° E 16:43:58 18° E
SKYMED 2 3.9 16:41:06 10° NNE 16:45:16 44° E 16:49:24 10° S
PAYLOAD B 4.2 16:41:10 10° SSE 16:46:44 74° ENE 16:52:21 10° N
Cosmos 1933 3.4 16:42:53 10° S 16:46:51 55° E 16:50:49 10° NNE
ATLAS CENTAUR R/B 3.2 16:35:22 10° SW 16:47:15 86° SE 16:50:57 19° NE
USA 276 3.5 16:44:49 10° NW 16:47:23 22° NNE 16:47:51 22° NNE
Cosmos 1602 4.1 16:45:02 10° N 16:48:39 39° ENE 16:52:17 10° SSE
SJ 16-02 3.1 16:48:10 10° NW 16:52:09 35° W 16:56:07 10° SSW
Cosmos 2034 Rocket 4.3 16:47:31 10° SSW 16:53:39 70° W 16:59:48 10° N
Meteor 1-26 Rocket 4.5 16:49:09 10° SSE 16:54:47 51° E 17:00:35 10° NNE
Cosmos 1500 Rocket 3.5 16:51:42 10° N 16:56:11 88° W 17:00:35 10° S
Cosmos 1627 Rocket 4.5 16:51:07 10° N 16:57:13 59° E 17:03:14 10° SSE
CZ-2D R/B 3.4 16:55:30 10° S 16:59:20 77° W 17:03:11 10° NNW
USA 234 4.0 16:54:15 10° SSE 17:00:37 54° SW 17:07:01 10° NW
NOSS 3-1 (A) 4.1 16:56:41 10° NNW 17:04:15 63° NE 17:12:59 10° SE
Meteor 1-20 Rocket 4.3 17:00:39 10° N 17:06:30 88° WSW 17:12:20 10° S
Cosmos 1805 Rocket 3.4 17:02:42 10° N 17:07:02 70° E 17:11:20 10° SSE
Cosmos 1833 Rocket 2.6 17:01:40 10° SSW 17:07:16 82° ESE 17:11:51 16° NNE
NOSS 3-1 (C) 4.2 16:59:41 10° NW 17:07:25 86° WSW 17:16:21 10° SSE
Cosmos 2279 Rocket 4.2 17:03:13 10° SSE 17:09:04 45° E 17:14:57 10° NNE
CZ-4B R/B 3.1 17:05:58 10° SSE 17:11:27 84° ENE 17:16:52 10° NNW
Cosmos 2360 4.3 17:06:49 10° NNW 17:12:27 53° ENE 17:18:00 10° SE
ARGOS 3.0 17:10:21 10° SSE 17:15:45 72° ENE 17:21:09 10° N
H-2A R/B 2.4 17:12:14 10° S 17:17:28 66° WSW 17:22:35 10° NNW
Sich 1 2.8 17:13:57 10° N 17:18:14 72° E 17:22:30 10° SSE
YAOGAN 3 4.4 17:14:28 10° SSE 17:18:48 78° ENE 17:23:11 10° N
Cosmos 1634 Rocket 4.0 17:12:48 10° S 17:19:07 87° E 17:25:30 10° N
GPS 2-04 Rocket1 3.9 17:16:21 10° SW 17:19:59 31° S 17:20:42 29° SSE
Cosmos 1898 Rocket 3.4 17:17:01 10° NNW 17:22:19 85° ENE 17:27:31 10° SSE
MOS 1-B Rocket 4.3 17:16:46 10° N 17:22:30 68° WNW 17:28:56 10° SSW
COSMOS 2455 2.9 17:17:47 10° S 17:23:39 58° ESE 17:25:52 37° NE
CZ-4 R/B 4.3 17:23:22 10° SSE 17:27:28 88° WSW 17:31:38 10° NNW
Landsat 5 3.4 17:27:18 28° N 17:29:27 81° WNW 17:33:30 10° SSW
Cosmos 44 4.0 17:26:16 10° NW 17:30:49 50° WSW 17:35:06 10° SSE
COSMO-SKYMED 1 3.3 17:29:13 11° N 17:33:20 53° WNW 17:37:33 10° SSW
SL-08 RB Rocket 3.6 17:29:09 10° SSE 17:33:48 76° ENE 17:38:26 10° N
Meteor 2-16 Rocket 4.3 17:28:08 10° N 17:34:12 63° E 17:40:15 10° SSE
deb Chang Zheng 4 4.2 17:30:03 10° S 17:34:15 56° W 17:38:30 10° NNW
Cosmos 540 Rocket 3.5 17:29:12 10° SSW 17:34:18 77° WNW 17:37:03 28° NNE
Cosmos 2026 Rocket 4.2 17:30:31 10° NNW 17:36:39 71° W 17:42:40 10° S
Okean O Rocket 2.0 17:34:07 10° S 17:38:30 63° W 17:42:56 10° NNW
CZ-2C R/B 3.2 17:34:29 10° N 17:39:35 55° WNW 17:44:37 10° SSW
Cosmos 2180 Rocket 4.4 17:39:53 10° S 17:46:11 69° E 17:49:36 29° NNE
ISS -0.9 17:44:38 10° NNW 17:44:55 11° NNW 17:44:55 11° NNW
CZ-4C R/B 3.3 17:42:55 10° NNW 17:49:44 42° NE 17:49:48 42° NE
Meteor 1-5 Rocket 4.2 17:51:26 10° N 17:57:27 84° E 18:03:23 10° S
GEOS 3 Rocket 3.8 17:56:53 43° SSE 17:58:37 71° SW 18:03:50 10° NW
Cosmos 2084 4.2 17:56:15 10° NW 17:59:41 52° WNW 17:59:41 52° WNW
Cosmos 2369 3.6 17:56:01 10° NNW 18:01:48 88° WSW 18:02:24 73° SSE
DMSP B5D2-2 4.1 18:06:38 77° W 18:06:38 77° W 18:11:41 10° SSW
Cosmos 841 Rocket 4.2 18:03:58 10° SW 18:08:57 49° WNW 18:10:09 41° NNW
Cosmos 1697 Rocket 3.5 18:04:28 10° NW 18:09:52 48° WSW 18:15:13 10° S
Cosmos 1937 Rocket 4.3 18:04:56 10° NNW 18:10:03 50° WSW 18:15:10 10° S
Cosmos 1980 Rocket 2.6 18:06:20 10° NNW 18:10:39 54° NNW 18:10:39 54° NNW
IRAS Rocket 4.3 18:13:13 71° SW 18:13:13 71° SW 18:18:08 10° SSW
Cosmos 2082 Rocket 2.6 18:12:31 10° SW 18:18:06 59° WNW 18:18:34 57° NW
Meteor 2-15 4.5 18:12:50 10° S 18:18:15 70° SSW 18:18:15 70° SSW
CZ-4C R/B 4.3 19:31:17 10° NW 19:35:02 32° WNW 19:35:02 32° WNW
